HP1CDW-13 Weather Reports


time (UTC)temp
C
wind
direction
speed
KPH
gust
KPH
rain 1hr
cm
rain 24hr
cm
rain mn
cm
humidity
%
barometer
mb
20260507153450 33 357 6.4 9.7 0.00 1.88 0.00 64 1014.9
20260507152450 32 34 4.8 8.0 0.00 1.88 0.00 66 1015.3
20260507151450 32 24 1.6 1.6 0.00 1.88 0.00 66 1015.2
20260507150450 32 0 0.0 1.6 0.00 1.88 0.00 67 1015.3
20260507145450 32 179 6.4 6.4 0.00 1.88 0.00 70 1015.4
20260507144450 32 107 3.2 3.2 0.00 1.88 0.00 72 1015.3
20260507143450 31 323 1.6 3.2 0.00 1.88 0.00 73 1015.4
20260507142450 30 201 3.2 3.2 0.00 1.88 0.00 75 1015.2
20260507141450 30 219 3.2 3.2 0.00 1.88 0.00 75 1015.3
20260507140450 31 0 0.0 1.6 0.00 1.88 0.00 73 1015.3
20260507135450 30 189 3.2 4.8 0.00 1.88 0.00 74 1015.3
20260507134450 30 0 0.0 1.6 0.00 1.88 0.00 75 1015.2
20260507133450 30 263 1.6 3.2 0.00 1.88 0.00 77 1014.9
20260507132450 29 208 3.2 6.4 0.00 1.88 0.00 77 1014.9
20260507131450 29 199 1.6 1.6 0.00 1.88 0.00 79 1014.7
20260507130450 28 0 0.0 1.6 0.00 1.88 0.00 79 1014.6
20260507125450 28 0 0.0 1.6 0.00 1.88 0.00 81 1014.7
20260507124450 28 31 1.6 1.6 0.00 1.88 0.00 83 1014.9
20260507123450 28 0 0.0 1.6 0.00 1.88 0.00 85 1014.7
20260507122450 27 7 1.6 1.6 0.00 1.88 0.00 87 1014.9
20260507121450 26 0 0.0 1.6 0.00 1.88 0.00 90 1015.0
20260507120450 26 0 0.0 1.6 0.00 1.88 0.00 96 1014.6
20260507115450 25 0 0.0 0.0 0.00 1.88 0.00 97 1014.4
20260507114450 25 0 0.0 0.0 0.00 1.88 0.00 98 1014.4
20260507113450 25 0 0.0 0.0 0.00 1.88 0.00 98 1014.2
20260507112450 25 93 1.6 3.2 0.00 1.88 0.00 98 1014.3
20260507111450 24 0 0.0 1.6 0.00 1.88 0.00 98 1013.9
20260507110450 25 0 0.0 0.0 0.00 1.88 0.00 98 1014.1
20260507105450 25 115 1.6 3.2 0.00 1.88 0.00 98 1013.9
20260507104450 25 0 0.0 1.6 0.00 1.88 0.00 98 1013.6
20260507103450 25 0 0.0 0.0 0.00 1.88 0.00 98 1013.6
20260507102450 25 0 0.0 0.0 0.00 1.88 0.00 97 1013.6
20260507101450 25 0 0.0 0.0 0.00 1.88 0.00 97 1013.9
20260507100450 25 94 1.6 1.6 0.00 1.88 0.00 97 1013.6
20260507095450 25 284 1.6 1.6 0.00 1.88 0.00 97 1013.5
20260507094450 25 0 0.0 1.6 0.00 1.88 0.00 96 1013.4
20260507093450 25 0 0.0 1.6 0.00 1.88 0.00 96 1013.4
20260507092450 25 0 0.0 1.6 0.00 1.88 0.00 96 1013.5
20260507091450 25 0 0.0 1.6 0.00 1.88 0.00 96 1013.4
20260507090450 25 269 1.6 3.2 0.00 1.88 0.00 96 1013.4
20260507085450 25 311 1.6 1.6 0.00 1.88 0.00 97 1013.5
20260507084450 25 326 1.6 1.6 0.00 1.88 0.00 97 1013.9
20260507083450 25 0 0.0 1.6 0.00 1.88 0.00 97 1013.5
20260507082450 25 157 1.6 1.6 0.00 1.88 0.00 96 1013.7
20260507081450 25 0 0.0 0.0 0.00 1.88 0.00 96 1013.5
20260507080450 25 260 1.6 1.6 0.00 1.88 0.00 96 1014.1
20260507075450 25 0 0.0 1.6 0.00 1.88 0.00 96 1013.8
20260507074450 25 0 0.0 1.6 0.00 1.88 0.00 95 1013.9
20260507073450 25 256 1.6 1.6 0.00 1.88 0.00 95 1014.0
20260507072450 25 0 0.0 1.6 0.00 1.88 0.00 95 1014.3
20260507071450 25 253 1.6 1.6 0.00 1.88 0.00 95 1014.3
20260507070450 25 0 0.0 1.6 0.00 1.88 0.00 95 1014.2
20260507065450 25 0 0.0 1.6 0.00 1.88 0.00 95 1014.6
20260507064450 25 0 0.0 3.2 0.00 1.88 0.00 95 1014.7
20260507063450 25 319 1.6 1.6 0.00 1.88 0.00 95 1014.8
20260507062450 25 247 1.6 1.6 0.00 1.88 0.00 95 1014.7
20260507061450 25 225 1.6 1.6 0.00 1.88 0.00 95 1014.9
20260507060450 25 0 0.0 1.6 0.00 1.88 0.00 94 1014.9
20260507055450 25 297 1.6 1.6 0.00 1.88 0.00 94 1015.0
20260507054450 25 311 1.6 3.2 0.00 1.88 0.00 95 1015.4
20260507053450 25 316 1.6 3.2 0.00 1.88 0.00 96 1015.2
20260507052450 25 0 0.0 1.6 0.00 1.88 0.00 96 1015.2
20260507051450 25 353 1.6 1.6 0.00 1.88 0.00 96 1015.5
20260507050450 26 0 0.0 1.6 0.00 1.88 0.00 96 1015.2
20260507045450 26 356 1.6 3.2 0.00 1.88 1.88 95 1015.3
20260507044450 26 0 0.0 1.6 0.00 1.88 1.88 94 1015.3
20260507043450 26 113 1.6 3.2 0.00 1.88 1.88 94 1015.3
20260507042450 26 321 1.6 1.6 0.00 1.88 1.88 94 1015.5
20260507041450 26 0 0.0 1.6 0.00 1.88 1.88 94 1015.3
20260507040450 26 0 0.0 0.0 0.00 1.88 1.88 93 1015.3
20260507035450 26 230 1.6 1.6 0.00 1.88 1.88 92 1015.4
20260507034450 26 294 3.2 3.2 0.00 1.88 1.88 92 1015.1
20260507033450 26 190 1.6 3.2 0.00 1.88 1.88 92 1014.8
20260507032450 26 202 1.6 3.2 0.00 1.88 1.88 92 1014.9
20260507031450 26 0 0.0 1.6 0.00 1.88 1.88 92 1014.8
20260507030450 26 0 0.0 0.0 0.00 1.88 1.88 91 1014.6
20260507025450 26 0 0.0 1.6 0.00 1.88 1.88 91 1014.8
20260507024450 26 338 3.2 4.8 0.00 1.88 1.88 92 1014.5
20260507023450 26 350 1.6 3.2 0.00 1.88 1.88 92 1014.3
20260507022450 27 0 0.0 1.6 0.00 1.88 1.88 91 1014.5
20260507021450 27 305 1.6 1.6 0.00 1.88 1.88 90 1014.4
20260507020450 27 229 1.6 3.2 0.00 1.88 1.88 90 1014.3
20260507015450 27 263 3.2 3.2 0.00 1.88 1.88 91 1014.1
20260507014450 27 295 1.6 1.6 0.00 1.88 1.88 90 1014.1
20260507013450 27 0 0.0 0.0 0.00 1.88 1.88 91 1013.9
20260507012450 27 252 1.6 1.6 0.00 1.88 1.88 91 1014.0
20260507011450 27 0 0.0 1.6 0.00 1.88 1.88 93 1013.7
20260507010450 27 0 0.0 0.0 0.00 1.88 1.88 94 1013.8
20260507005450 27 273 1.6 1.6 0.00 1.88 1.88 94 1013.9
20260507004450 27 0 0.0 0.0 0.00 1.88 1.88 93 1013.6
20260507003450 27 0 0.0 0.0 0.00 1.88 1.88 93 1013.4
20260507002450 27 0 0.0 1.6 0.00 1.88 1.88 92 1013.6
20260507001450 27 0 0.0 0.0 0.00 1.88 1.88 92 1013.6
20260507000450 27 0 0.0 1.6 0.00 1.88 1.88 93 1013.5
20260506235450 27 272 1.6 1.6 0.00 1.88 1.88 93 1013.6
20260506234450 27 229 1.6 1.6 0.00 1.88 1.88 94 1013.5
20260506233450 27 216 1.6 1.6 0.00 1.88 1.88 95 1013.3
20260506232450 27 0 0.0 1.6 0.00 1.88 1.88 95 1013.3
20260506231450 27 0 0.0 0.0 0.08 1.88 1.88 94 1013.3
20260506230450 27 0 0.0 1.6 0.46 1.88 1.88 94 1013.4
20260506225450 27 0 0.0 1.6 1.09 1.88 1.88 93 1012.8
20260506224450 27 243 3.2 3.2 1.68 1.88 1.88 93 1012.7
20260506223450 27 224 3.2 3.2 1.88 1.88 1.88 93 1012.8
20260506222450 27 278 1.6 3.2 1.88 1.96 1.88 93 1012.7
20260506221450 27 0 0.0 0.0 1.80 1.93 1.88 92 1012.8
20260506220450 27 30 3.2 4.8 1.40 1.57 1.52 91 1012.7
20260506215450 28 360 3.2 4.8 0.79 0.97 1.17 87 1012.6
20260506214450 30 263 3.2 3.2 0.20 0.38 0.25 84 1012.4
20260506213450 31 246 4.8 4.8 0.00 0.18 0.03 76 1012.5
20260506212450 31 250 6.4 6.4 0.00 0.18 0.00 79 1012.3
20260506211450 31 272 4.8 6.4 0.00 0.18 0.00 79 1012.2
20260506210450 31 243 3.2 3.2 0.00 0.18 0.00 78 1012.3
20260506205450 31 228 4.8 4.8 0.00 0.18 0.00 77 1012.5
20260506204450 31 201 4.8 4.8 0.00 0.18 0.00 77 1012.7
20260506203450 31 232 1.6 3.2 0.00 0.18 0.00 77 1012.5
20260506202450 31 196 3.2 3.2 0.00 0.18 0.00 77 1012.5
20260506201450 31 212 6.4 8.0 0.00 0.18 0.00 76 1012.9
20260506200450 31 280 3.2 4.8 0.00 0.18 0.00 75 1013.0
20260506195450 30 254 3.2 4.8 0.00 0.18 0.00 78 1012.9
20260506194450 30 224 4.8 4.8 0.00 0.18 0.00 80 1012.8
20260506193450 31 260 3.2 6.4 0.00 0.18 0.00 77 1012.9
20260506192450 31 243 4.8 4.8 0.00 0.18 0.00 74 1013.0
20260506191450 31 137 4.8 4.8 0.00 0.18 0.00 74 1013.0
20260506190450 31 141 1.6 4.8 0.00 0.18 0.00 74 1013.0
20260506185450 32 194 3.2 9.7 0.00 0.18 0.00 72 1013.0
20260506184450 32 202 8.0 8.0 0.00 0.18 0.00 73 1013.2
20260506183450 32 150 4.8 4.8 0.00 0.23 0.00 72 1013.4
20260506182450 32 110 6.4 6.4 0.00 0.30 0.00 71 1013.8
20260506181450 32 205 4.8 6.4 0.00 0.46 0.00 71 1014.0
20260506180450 32 242 3.2 8.0 0.00 0.79 0.00 72 1014.2
20260506175450 32 264 1.6 4.8 0.00 1.14 0.00 71 1014.1
20260506174450 32 192 4.8 6.4 0.00 1.14 0.00 72 1014.4
20260506173450 32 208 4.8 8.0 0.00 1.22 0.00 73 1014.4
20260506172450 32 223 4.8 4.8 0.00 1.22 0.00 73 1014.3
20260506171450 32 191 6.4 6.4 0.00 1.22 0.00 73 1014.3
20260506170450 32 186 8.0 8.0 0.00 1.22 0.00 73 1014.8
20260506165450 31 239 8.0 8.0 0.00 1.22 0.00 74 1014.8
20260506164450 32 192 9.7 11.3 0.00 1.22 0.00 73 1014.9
20260506163450 31 165 6.4 6.4 0.00 1.22 0.00 73 1014.8
20260506162450 32 134 9.7 11.3 0.00 1.24 0.00 73 1015.1
20260506161450 31 193 3.2 8.0 0.00 1.83 0.00 75 1015.3
20260506160450 32 163 3.2 8.0 0.00 1.83 0.00 73 1015.5
20260506155450 31 188 6.4 6.4 0.00 1.83 0.00 75 1015.3
20260506154450 31 186 9.7 12.9 0.00 1.83 0.00 74 1015.6